Location: Newark
(43.8478°N, 19.4658°E)
Time: 04:36:36
(UTC+00:00)

Starlink Launch 2 leader - Visible Passes

Search period start: 09 December 2019 00:00
Search period end: 19 December 2019 00:00
Orbit: 279 x 281 km, 53.0° (Epoch: 13 November)

Date Brightness Start Highest point End Pass type
(mag) Time Alt. Az. Time Alt. Az. Time Alt. Az.
09 Dec 5.5 03:50:03 16° E 03:50:03 16° E 03:50:47 10° E visible
09 Dec 4.3 05:20:12 10° W 05:21:57 17° SW 05:23:41 10° S visible
10 Dec 5.4 03:52:12 17° ESE 03:52:12 17° ESE 03:52:54 10° ESE visible
11 Dec 5.5 03:54:25 13° SE 03:54:25 13° SE 03:54:46 10° SE visible
